Time,TemperatureF,DewpointF,PressureIn,WindDirection,WindDirectionDegrees,WindSpeedMPH,WindSpeedGustMPH,Humidity,HourlyPrecipIn,Conditions,Clouds,dailyrainin,SoftwareType,DateUTC
2013-04-11 00:01:00,39.4,37.0,29.82,West,270,4.0,12.0,91,0.00,,,1.25,meteohub,2013-04-11 05:01:00,
2013-04-11 00:06:00,39.4,37.0,29.83,NW,315,4.0,9.0,91,0.00,,,0.00,meteohub,2013-04-11 05:06:00,
2013-04-11 00:11:00,39.4,37.0,29.83,WSW,248,11.0,11.0,91,0.00,,,0.00,meteohub,2013-04-11 05:11:00,
2013-04-11 00:16:00,39.4,37.0,29.83,West,270,5.0,11.0,91,0.00,,,0.00,meteohub,2013-04-11 05:16:00,
2013-04-11 00:21:00,39.2,37.0,29.83,WSW,248,9.0,11.0,92,0.00,,,0.00,meteohub,2013-04-11 05:21:00,
2013-04-11 00:26:00,39.2,37.0,29.82,West,270,5.0,12.0,92,0.00,,,0.00,meteohub,2013-04-11 05:26:00,
2013-04-11 00:31:00,39.2,37.0,29.82,West,270,7.0,12.0,92,0.00,,,0.00,meteohub,2013-04-11 05:31:00,
2013-04-11 00:36:00,39.2,37.0,29.82,West,270,8.0,12.0,92,0.00,,,0.00,meteohub,2013-04-11 05:36:00,
2013-04-11 00:42:00,39.2,37.0,29.82,SW,225,8.0,9.0,92,0.00,,,0.00,meteohub,2013-04-11 05:42:00,
2013-04-11 00:47:00,39.2,37.0,29.83,West,270,8.0,16.0,92,0.00,,,0.00,meteohub,2013-04-11 05:47:00,
2013-04-11 00:52:00,39.0,36.9,29.83,WSW,248,12.0,16.0,92,0.00,,,0.00,meteohub,2013-04-11 05:52:00,
2013-04-11 00:57:00,39.0,36.9,29.83,WNW,293,15.0,16.0,92,0.00,,,0.00,meteohub,2013-04-11 05:57:00,
2013-04-11 01:02:00,39.0,36.9,29.82,WSW,248,6.0,15.0,92,0.00,,,0.00,meteohub,2013-04-11 06:02:00,
2013-04-11 01:07:00,39.0,36.9,29.82,West,270,11.0,15.0,92,0.00,,,0.00,meteohub,2013-04-11 06:07:00,
2013-04-11 01:12:00,39.0,36.9,29.82,West,270,9.0,15.0,92,0.00,,,0.00,meteohub,2013-04-11 06:12:00,
2013-04-11 01:17:00,38.8,36.7,29.82,SW,225,12.0,13.0,92,0.00,,,0.00,meteohub,2013-04-11 06:17:00,
2013-04-11 01:22:00,38.7,36.5,29.82,West,270,16.0,16.0,92,0.00,,,0.00,meteohub,2013-04-11 06:22:00,
2013-04-11 01:27:00,38.5,36.3,29.82,West,270,8.0,16.0,92,0.00,,,0.00,meteohub,2013-04-11 06:27:00,
2013-04-11 01:32:00,38.5,36.3,29.82,West,270,10.0,16.0,92,0.00,,,0.00,meteohub,2013-04-11 06:32:00,
2013-04-11 01:37:00,38.3,36.1,29.82,West,270,10.0,16.0,92,0.00,,,0.00,meteohub,2013-04-11 06:37:00,
2013-04-11 01:42:00,38.1,36.0,29.82,West,270,9.0,13.0,92,0.00,,,0.00,meteohub,2013-04-11 06:42:00,
2013-04-11 01:47:00,38.1,36.0,29.82,WNW,293,6.0,13.0,92,0.00,,,0.00,meteohub,2013-04-11 06:47:00,
2013-04-11 01:52:00,38.3,36.1,29.82,West,270,8.0,13.0,92,0.00,,,0.00,meteohub,2013-04-11 06:52:00,
2013-04-11 01:57:00,37.9,35.8,29.82,WNW,293,10.0,13.0,92,0.00,,,0.00,meteohub,2013-04-11 06:57:00,
2013-04-11 02:02:00,37.9,35.8,29.81,NW,315,12.0,12.0,92,0.00,,,0.00,meteohub,2013-04-11 07:02:00,
2013-04-11 02:07:00,37.8,35.4,29.81,WSW,248,13.0,13.0,91,0.00,,,0.00,meteohub,2013-04-11 07:07:00,
2013-04-11 02:12:00,37.8,35.4,29.81,West,270,12.0,16.0,91,0.00,,,0.00,meteohub,2013-04-11 07:12:00,
2013-04-11 02:17:00,37.6,35.2,29.81,WSW,248,12.0,16.0,91,0.00,,,0.00,meteohub,2013-04-11 07:17:00,
2013-04-11 02:22:00,37.4,35.1,29.80,SW,225,15.0,16.0,91,0.00,,,0.00,meteohub,2013-04-11 07:22:00,
2013-04-11 02:27:00,37.2,34.9,29.80,WNW,293,8.0,16.0,91,0.00,,,0.00,meteohub,2013-04-11 07:27:00,
2013-04-11 02:32:00,37.2,34.9,29.80,WSW,248,11.0,16.0,91,0.00,,,0.00,meteohub,2013-04-11 07:32:00,
2013-04-11 02:37:00,36.9,34.5,29.80,West,270,8.0,16.0,91,0.00,,,0.00,meteohub,2013-04-11 07:37:00,
2013-04-11 02:43:00,36.9,34.5,29.81,WSW,248,7.0,15.0,91,0.00,,,0.00,meteohub,2013-04-11 07:43:00,
2013-04-11 02:48:00,36.9,34.5,29.81,West,270,9.0,15.0,91,0.00,,,0.00,meteohub,2013-04-11 07:48:00,
2013-04-11 02:53:00,36.7,34.3,29.81,WSW,248,12.0,13.0,91,0.00,,,0.00,meteohub,2013-04-11 07:53:00,
2013-04-11 02:58:00,36.5,34.2,29.81,West,270,12.0,13.0,91,0.00,,,0.00,meteohub,2013-04-11 07:58:00,
2013-04-11 03:03:00,36.3,34.2,29.81,WNW,293,11.0,12.0,92,0.00,,,0.00,meteohub,2013-04-11 08:03:00,
2013-04-11 03:08:00,36.3,34.0,29.81,West,270,10.0,12.0,91,0.00,,,0.00,meteohub,2013-04-11 08:08:00,
2013-04-11 03:13:00,36.5,34.2,29.81,West,270,6.0,12.0,91,0.00,,,0.00,meteohub,2013-04-11 08:13:00,
2013-04-11 03:18:00,36.3,34.2,29.81,WSW,248,9.0,11.0,92,0.00,,,0.00,meteohub,2013-04-11 08:18:00,
2013-04-11 03:23:00,36.1,34.0,29.80,NW,315,9.0,10.0,92,0.00,,,0.00,meteohub,2013-04-11 08:23:00,
2013-04-11 03:28:00,36.1,34.0,29.80,West,270,7.0,12.0,92,0.00,,,0.00,meteohub,2013-04-11 08:28:00,
2013-04-11 03:33:00,36.1,34.0,29.80,West,270,7.0,12.0,92,0.00,,,0.00,meteohub,2013-04-11 08:33:00,
2013-04-11 03:38:00,36.1,34.0,29.80,WNW,293,7.0,11.0,92,0.00,,,0.00,meteohub,2013-04-11 08:38:00,
2013-04-11 03:43:00,36.1,34.0,29.80,WSW,248,7.0,9.0,92,0.00,,,0.00,meteohub,2013-04-11 08:43:00,
2013-04-11 03:48:00,36.1,34.0,29.80,WNW,293,9.0,10.0,92,0.00,,,0.00,meteohub,2013-04-11 08:48:00,
2013-04-11 03:53:00,36.1,34.0,29.80,WSW,248,6.0,10.0,92,0.00,,,0.00,meteohub,2013-04-11 08:53:00,
2013-04-11 03:58:00,36.0,33.8,29.80,West,270,10.0,10.0,92,0.00,,,0.00,meteohub,2013-04-11 08:58:00,
2013-04-11 04:03:00,36.1,34.0,29.78,WNW,293,8.0,10.0,92,0.00,,,0.00,meteohub,2013-04-11 09:03:00,
2013-04-11 04:08:00,36.1,34.0,29.78,West,270,8.0,11.0,92,0.00,,,0.00,meteohub,2013-04-11 09:08:00,
2013-04-11 04:13:00,36.0,33.8,29.78,West,270,10.0,13.0,92,0.00,,,0.00,meteohub,2013-04-11 09:13:00,
2013-04-11 04:18:00,35.8,33.6,29.78,ENE,68,12.0,13.0,92,0.00,,,0.00,meteohub,2013-04-11 09:18:00,
2013-04-11 04:23:00,35.8,33.6,29.79,SW,225,5.0,13.0,92,0.00,,,0.00,meteohub,2013-04-11 09:23:00,
2013-04-11 04:28:00,35.6,33.4,29.79,WSW,248,8.0,14.0,92,0.00,,,0.00,meteohub,2013-04-11 09:28:00,
2013-04-11 04:33:00,35.6,33.4,29.79,WSW,248,9.0,14.0,92,0.00,,,0.00,meteohub,2013-04-11 09:33:00,
2013-04-11 04:38:00,35.8,33.6,29.79,NW,315,9.0,14.0,92,0.00,,,0.00,meteohub,2013-04-11 09:38:00,
2013-04-11 04:43:00,35.6,33.4,29.80,West,270,11.0,11.0,92,0.00,,,0.00,meteohub,2013-04-11 09:43:00,
2013-04-11 04:48:00,35.6,33.4,29.80,West,270,10.0,13.0,92,0.00,,,0.00,meteohub,2013-04-11 09:48:00,
2013-04-11 04:53:00,35.6,33.4,29.80,SSW,203,7.0,13.0,92,0.00,,,0.00,meteohub,2013-04-11 09:53:00,
2013-04-11 04:58:00,35.4,33.3,29.80,WSW,248,7.0,13.0,92,0.00,,,0.00,meteohub,2013-04-11 09:58:00,
2013-04-11 05:03:00,35.4,33.3,29.81,SW,225,9.0,13.0,92,0.00,,,0.00,meteohub,2013-04-11 10:03:00,
2013-04-11 05:08:00,35.4,33.3,29.81,WSW,248,6.0,13.0,92,0.00,,,0.00,meteohub,2013-04-11 10:08:00,
2013-04-11 05:13:00,35.4,33.3,29.81,South,180,6.0,14.0,92,0.00,,,0.00,meteohub,2013-04-11 10:13:00,
2013-04-11 05:18:00,35.4,33.3,29.81,WSW,248,7.0,14.0,92,0.00,,,0.00,meteohub,2013-04-11 10:18:00,
2013-04-11 05:23:00,35.4,33.3,29.75,ESE,113,5.0,13.0,92,0.00,,,0.00,meteohub,2013-04-11 10:23:00,
2013-04-11 05:28:00,35.4,33.3,29.75,WNW,293,7.0,13.0,92,0.00,,,0.00,meteohub,2013-04-11 10:28:00,
2013-04-11 05:33:00,35.4,33.3,29.75,WSW,248,9.0,14.0,92,0.00,,,0.00,meteohub,2013-04-11 10:33:00,
2013-04-11 05:38:00,35.4,33.3,29.75,NNW,338,8.0,14.0,92,0.00,,,0.00,meteohub,2013-04-11 10:38:00,
2013-04-11 05:43:00,35.4,33.3,29.79,WSW,248,7.0,14.0,92,0.00,,,0.00,meteohub,2013-04-11 10:43:00,
2013-04-11 05:48:00,35.4,33.3,29.79,WSW,248,6.0,10.0,92,0.00,,,0.00,meteohub,2013-04-11 10:48:00,
2013-04-11 05:53:00,35.4,33.1,29.79,South,180,6.0,10.0,91,0.00,,,0.00,meteohub,2013-04-11 10:53:00,
2013-04-11 05:58:00,35.2,32.9,29.79,SW,225,9.0,10.0,91,0.00,,,0.00,meteohub,2013-04-11 10:58:00,
2013-04-11 06:03:00,35.1,32.7,29.82,SSW,203,7.0,10.0,91,0.00,,,0.00,meteohub,2013-04-11 11:03:00,
2013-04-11 06:08:00,34.9,32.5,29.83,SW,225,8.0,9.0,91,0.00,,,0.00,meteohub,2013-04-11 11:08:00,
2013-04-11 06:13:00,34.9,32.5,29.83,NW,315,9.0,9.0,91,0.00,,,0.00,meteohub,2013-04-11 11:13:00,
2013-04-11 06:18:00,34.9,32.5,29.83,WSW,248,12.0,12.0,91,0.00,,,0.00,meteohub,2013-04-11 11:18:00,
2013-04-11 06:23:00,34.9,32.5,29.84,West,270,8.0,10.0,91,0.00,,,0.00,meteohub,2013-04-11 11:23:00,
2013-04-11 06:28:00,34.9,32.5,29.84,WNW,293,11.0,12.0,91,0.00,,,0.00,meteohub,2013-04-11 11:28:00,
2013-04-11 06:33:00,34.9,32.5,29.84,NW,315,11.0,12.0,91,0.00,,,0.00,meteohub,2013-04-11 11:33:00,
2013-04-11 06:38:00,34.9,32.5,29.84,West,270,12.0,12.0,91,0.00,,,0.00,meteohub,2013-04-11 11:38:00,
2013-04-11 06:43:00,34.7,32.4,29.79,West,270,9.0,16.0,91,0.00,,,0.00,meteohub,2013-04-11 11:43:00,
2013-04-11 06:48:00,34.7,32.4,29.79,South,180,7.0,16.0,91,0.00,,,0.00,meteohub,2013-04-11 11:48:00,
2013-04-11 06:53:00,34.7,32.4,29.79,WSW,248,12.0,16.0,91,0.00,,,0.00,meteohub,2013-04-11 11:53:00,
2013-04-11 06:58:00,34.9,32.5,29.79,West,270,8.0,11.0,91,0.00,,,0.00,meteohub,2013-04-11 11:58:00,
2013-04-11 07:03:00,35.1,32.7,29.80,WSW,248,8.0,12.0,91,0.00,,,0.00,meteohub,2013-04-11 12:03:00,
2013-04-11 07:08:00,34.9,32.5,29.80,WSW,248,5.0,15.0,91,0.00,,,0.00,meteohub,2013-04-11 12:08:00,
2013-04-11 07:13:00,34.9,32.5,29.80,SW,225,7.0,15.0,91,0.00,,,0.00,meteohub,2013-04-11 12:13:00,
2013-04-11 07:18:00,34.9,32.5,29.80,South,180,12.0,15.0,91,0.00,,,0.00,meteohub,2013-04-11 12:18:00,
2013-04-11 07:23:00,34.7,32.4,29.80,West,270,9.0,15.0,91,0.00,,,0.00,meteohub,2013-04-11 12:23:00,
2013-04-11 07:28:00,34.9,32.5,29.80,West,270,6.0,12.0,91,0.00,,,0.00,meteohub,2013-04-11 12:28:00,
2013-04-11 07:33:00,34.9,32.5,29.80,West,270,14.0,14.0,91,0.00,,,0.00,meteohub,2013-04-11 12:33:00,
2013-04-11 07:38:00,34.9,32.5,29.80,WSW,248,6.0,11.0,91,0.00,,,0.00,meteohub,2013-04-11 12:38:00,
2013-04-11 07:44:00,35.1,32.7,29.83,SSW,203,11.0,14.0,91,0.00,,,0.00,meteohub,2013-04-11 12:44:00,
2013-04-11 07:49:00,34.9,32.5,29.83,WSW,248,7.0,14.0,91,0.00,,,0.00,meteohub,2013-04-11 12:49:00,
2013-04-11 07:54:00,34.9,32.5,29.83,NW,315,12.0,12.0,91,0.00,,,0.00,meteohub,2013-04-11 12:54:00,
2013-04-11 07:59:00,35.1,32.7,29.83,SW,225,6.0,12.0,91,0.00,,,0.00,meteohub,2013-04-11 12:59:00,
2013-04-11 08:04:00,34.9,32.2,29.81,NW,315,7.0,12.0,90,0.00,,,0.00,meteohub,2013-04-11 13:04:00,
2013-04-11 08:09:00,34.9,32.2,29.81,NW,315,9.0,12.0,90,0.00,,,0.00,meteohub,2013-04-11 13:09:00,
2013-04-11 08:14:00,34.9,32.2,29.81,South,180,6.0,15.0,90,0.00,,,0.00,meteohub,2013-04-11 13:14:00,
2013-04-11 08:19:00,34.9,32.2,29.81,WSW,248,4.0,15.0,90,0.00,,,0.00,meteohub,2013-04-11 13:19:00,
2013-04-11 08:24:00,34.9,32.2,29.80,SW,225,5.0,15.0,90,0.00,,,0.00,meteohub,2013-04-11 13:24:00,
2013-04-11 08:29:00,34.9,32.2,29.80,WSW,248,4.0,10.0,90,0.00,,,0.00,meteohub,2013-04-11 13:29:00,
2013-04-11 08:34:00,35.1,32.4,29.80,WNW,293,6.0,8.0,90,0.00,,,0.00,meteohub,2013-04-11 13:34:00,
2013-04-11 08:39:00,35.4,32.7,29.80,NNE,23,8.0,8.0,90,0.00,,,0.00,meteohub,2013-04-11 13:39:00,
2013-04-11 08:44:00,35.2,32.5,29.80,West,270,4.0,13.0,90,0.00,,,0.00,meteohub,2013-04-11 13:44:00,
2013-04-11 08:49:00,35.4,32.7,29.80,NW,315,9.0,13.0,90,0.00,,,0.00,meteohub,2013-04-11 13:49:00,
2013-04-11 08:54:00,35.6,32.9,29.79,West,270,7.0,13.0,90,0.00,,,0.00,meteohub,2013-04-11 13:54:00,
2013-04-11 08:59:00,35.6,32.9,29.79,WNW,293,15.0,15.0,90,0.00,,,0.00,meteohub,2013-04-11 13:59:00,
2013-04-11 09:04:00,35.8,33.1,29.80,West,270,6.0,10.0,90,0.00,,,0.00,meteohub,2013-04-11 14:04:00,
2013-04-11 09:09:00,35.6,32.7,29.80,NW,315,9.0,15.0,89,0.00,,,0.00,meteohub,2013-04-11 14:09:00,
2013-04-11 09:14:00,35.8,33.1,29.80,SW,225,7.0,15.0,90,0.00,,,0.00,meteohub,2013-04-11 14:14:00,
2013-04-11 09:19:00,36.0,33.1,29.80,SW,225,10.0,15.0,89,0.00,,,0.00,meteohub,2013-04-11 14:19:00,
2013-04-11 09:24:00,36.1,33.3,29.80,WSW,248,7.0,9.0,89,0.00,,,0.00,meteohub,2013-04-11 14:24:00,
2013-04-11 09:29:00,35.6,32.7,29.80,NW,315,10.0,10.0,89,0.00,,,0.00,meteohub,2013-04-11 14:29:00,
2013-04-11 09:34:00,35.6,32.4,29.80,NW,315,13.0,13.0,88,0.00,,,0.00,meteohub,2013-04-11 14:34:00,
2013-04-11 09:39:00,35.8,32.9,29.80,WSW,248,8.0,13.0,89,0.00,,,0.00,meteohub,2013-04-11 14:39:00,
2013-04-11 09:44:00,35.8,32.9,29.78,West,270,10.0,13.0,89,0.00,,,0.00,meteohub,2013-04-11 14:44:00,
2013-04-11 09:49:00,35.8,32.9,29.78,WSW,248,9.0,13.0,89,0.00,,,0.00,meteohub,2013-04-11 14:49:00,
2013-04-11 09:54:00,36.1,33.3,29.78,WNW,293,7.0,11.0,89,0.00,,,0.00,meteohub,2013-04-11 14:54:00,
2013-04-11 09:59:00,36.3,33.4,29.78,WNW,293,11.0,12.0,89,0.00,,,0.00,meteohub,2013-04-11 14:59:00,
2013-04-11 10:04:00,36.9,34.0,29.78,NW,315,7.0,12.0,89,0.00,,,0.00,meteohub,2013-04-11 15:04:00,
2013-04-11 10:09:00,36.9,34.0,29.78,WNW,293,7.0,12.0,89,0.00,,,0.00,meteohub,2013-04-11 15:09:00,
2013-04-11 10:14:00,37.0,34.2,29.78,ENE,68,3.0,11.0,89,0.00,,,0.00,meteohub,2013-04-11 15:14:00,
2013-04-11 10:19:00,37.2,34.0,29.78,WSW,248,9.0,11.0,88,0.00,,,0.00,meteohub,2013-04-11 15:19:00,
2013-04-11 10:24:00,37.2,34.0,29.77,SW,225,12.0,12.0,88,0.00,,,0.00,meteohub,2013-04-11 15:24:00,
2013-04-11 10:29:00,37.4,34.2,29.77,West,270,10.0,12.0,88,0.00,,,0.00,meteohub,2013-04-11 15:29:00,
2013-04-11 10:34:00,37.6,34.0,29.77,WSW,248,12.0,12.0,87,0.00,,,0.00,meteohub,2013-04-11 15:34:00,
2013-04-11 10:39:00,37.8,34.2,29.77,West,270,10.0,12.0,87,0.00,,,0.00,meteohub,2013-04-11 15:39:00,
2013-04-11 10:44:00,37.8,34.2,29.79,WSW,248,8.0,12.0,87,0.00,,,0.00,meteohub,2013-04-11 15:44:00,
2013-04-11 10:49:00,37.6,34.0,29.79,SSE,158,6.0,12.0,87,0.00,,,0.00,meteohub,2013-04-11 15:49:00,
2013-04-11 10:52:00,37.8,34.2,29.79,SW,225,9.0,12.0,87,0.00,,,0.00,meteohub,2013-04-11 15:52:00,
2013-04-11 10:57:00,37.8,34.2,29.79,WSW,248,5.0,12.0,87,0.00,,,0.00,meteohub,2013-04-11 15:57:00,
2013-04-11 11:07:00,37.9,34.3,29.79,West,270,11.0,11.0,87,0.00,,,0.00,meteohub,2013-04-11 16:07:00,
2013-04-11 11:12:00,37.9,34.2,29.79,West,270,7.0,12.0,86,0.00,,,0.00,meteohub,2013-04-11 16:12:00,
2013-04-11 11:17:00,37.9,34.2,29.79,WSW,248,13.0,13.0,86,0.00,,,0.00,meteohub,2013-04-11 16:17:00,
2013-04-11 11:22:00,37.9,34.2,29.80,SW,225,8.0,13.0,86,0.00,,,0.00,meteohub,2013-04-11 16:22:00,
2013-04-11 11:27:00,37.9,34.2,29.80,SW,225,9.0,13.0,86,0.00,,,0.00,meteohub,2013-04-11 16:27:00,
2013-04-11 11:32:00,37.9,34.2,29.80,NW,315,9.0,13.0,86,0.00,,,0.00,meteohub,2013-04-11 16:32:00,
2013-04-11 11:37:00,37.9,34.2,29.80,WSW,248,11.0,11.0,86,0.00,,,0.00,meteohub,2013-04-11 16:37:00,
2013-04-11 11:42:00,37.9,34.2,29.81,West,270,13.0,15.0,86,0.00,,,0.00,meteohub,2013-04-11 16:42:00,
2013-04-11 11:47:00,38.1,34.3,29.81,South,180,9.0,15.0,86,0.00,,,0.00,meteohub,2013-04-11 16:47:00,
2013-04-11 11:52:00,38.3,34.2,29.81,WSW,248,5.0,15.0,85,0.00,,,0.00,meteohub,2013-04-11 16:52:00,
2013-04-11 11:57:00,38.3,34.2,29.81,WSW,248,13.0,17.0,85,0.00,,,0.00,meteohub,2013-04-11 16:57:00,
2013-04-11 12:02:00,38.7,34.5,29.81,WNW,293,9.0,17.0,85,0.00,,,0.00,meteohub,2013-04-11 17:02:00,
2013-04-11 12:07:00,38.5,34.3,29.81,West,270,15.0,17.0,85,0.00,,,0.00,meteohub,2013-04-11 17:07:00,
2013-04-11 12:12:00,38.7,34.5,29.81,NW,315,9.0,15.0,85,0.00,,,0.00,meteohub,2013-04-11 17:12:00,
2013-04-11 12:17:00,38.7,34.2,29.81,WSW,248,11.0,17.0,84,0.00,,,0.00,meteohub,2013-04-11 17:17:00,
2013-04-11 12:22:00,38.8,34.3,29.82,WSW,248,16.0,17.0,84,0.00,,,0.00,meteohub,2013-04-11 17:22:00,
2013-04-11 12:27:00,39.0,34.3,29.81,West,270,13.0,16.0,83,0.00,,,0.00,meteohub,2013-04-11 17:27:00,
2013-04-11 12:32:00,39.4,34.7,29.81,WSW,248,12.0,16.0,83,0.00,,,0.00,meteohub,2013-04-11 17:32:00,
2013-04-11 12:37:00,39.4,34.7,29.81,WSW,248,10.0,16.0,83,0.00,,,0.00,meteohub,2013-04-11 17:37:00,
2013-04-11 12:42:00,40.1,35.1,29.83,SSE,158,16.0,16.0,82,0.00,,,0.00,meteohub,2013-04-11 17:42:00,
2013-04-11 12:47:00,41.0,36.3,29.82,West,270,5.0,15.0,83,0.00,,,0.00,meteohub,2013-04-11 17:47:00,
2013-04-11 12:52:00,41.9,36.9,29.82,West,270,9.0,16.0,82,0.00,,,0.00,meteohub,2013-04-11 17:52:00,
2013-04-11 12:57:00,42.6,37.2,29.82,West,270,9.0,16.0,81,0.00,,,0.00,meteohub,2013-04-11 17:57:00,
2013-04-11 13:03:00,42.8,36.7,29.81,SW,225,9.0,16.0,79,0.00,,,0.00,meteohub,2013-04-11 18:03:00,
2013-04-11 13:08:00,43.0,37.2,29.81,ESE,113,8.0,16.0,80,0.00,,,0.00,meteohub,2013-04-11 18:08:00,
2013-04-11 13:13:00,43.3,36.9,29.81,WSW,248,13.0,13.0,78,0.00,,,0.00,meteohub,2013-04-11 18:13:00,
2013-04-11 13:18:00,43.7,37.6,29.81,West,270,13.0,13.0,79,0.00,,,0.00,meteohub,2013-04-11 18:18:00,
2013-04-11 13:23:00,43.7,37.6,29.80,NNW,338,12.0,13.0,79,0.00,,,0.00,meteohub,2013-04-11 18:23:00,
2013-04-11 13:28:00,44.1,37.9,29.80,WNW,293,11.0,13.0,79,0.00,,,0.00,meteohub,2013-04-11 18:28:00,
2013-04-11 13:33:00,44.1,37.6,29.80,WNW,293,11.0,13.0,78,0.00,,,0.00,meteohub,2013-04-11 18:33:00,
2013-04-11 13:38:00,44.1,37.4,29.80,West,270,13.0,13.0,77,0.00,,,0.00,meteohub,2013-04-11 18:38:00,
2013-04-11 13:43:00,44.2,37.6,29.81,West,270,11.0,17.0,77,0.00,,,0.00,meteohub,2013-04-11 18:43:00,
2013-04-11 13:48:00,44.6,37.8,29.81,WNW,293,12.0,17.0,77,0.00,,,0.00,meteohub,2013-04-11 18:48:00,
2013-04-11 13:53:00,45.1,38.3,29.81,WSW,248,13.0,17.0,77,0.00,,,0.00,meteohub,2013-04-11 18:53:00,
2013-04-11 13:58:00,45.7,38.5,29.81,WSW,248,12.0,16.0,76,0.00,,,0.00,meteohub,2013-04-11 18:58:00,
2013-04-11 14:03:00,45.7,38.5,29.79,WNW,293,9.0,16.0,76,0.00,,,0.00,meteohub,2013-04-11 19:03:00,
2013-04-11 14:08:00,46.0,38.3,29.79,WNW,293,15.0,16.0,74,0.00,,,0.00,meteohub,2013-04-11 19:08:00,
2013-04-11 14:13:00,46.2,37.8,29.79,WNW,293,16.0,18.0,72,0.00,,,0.00,meteohub,2013-04-11 19:13:00,
2013-04-11 14:18:00,46.4,37.9,29.79,West,270,14.0,18.0,72,0.00,,,0.00,meteohub,2013-04-11 19:18:00,
2013-04-11 14:24:00,46.6,38.1,29.80,West,270,15.0,18.0,72,0.00,,,0.00,meteohub,2013-04-11 19:24:00,
2013-04-11 14:29:00,46.6,37.8,29.80,West,270,13.0,18.0,71,0.00,,,0.00,meteohub,2013-04-11 19:29:00,
2013-04-11 14:34:00,46.8,38.3,29.80,NW,315,10.0,15.0,72,0.00,,,0.00,meteohub,2013-04-11 19:34:00,
2013-04-11 14:39:00,46.9,38.1,29.80,WSW,248,13.0,15.0,71,0.00,,,0.00,meteohub,2013-04-11 19:39:00,
2013-04-11 14:44:00,46.9,37.6,29.79,WSW,248,11.0,14.0,70,0.00,,,0.00,meteohub,2013-04-11 19:44:00,
2013-04-11 14:49:00,47.3,37.9,29.78,SW,225,10.0,14.0,70,0.00,,,0.00,meteohub,2013-04-11 19:49:00,
2013-04-11 14:54:00,47.7,37.9,29.78,ESE,113,17.0,17.0,69,0.00,,,0.00,meteohub,2013-04-11 19:54:00,
2013-04-11 14:59:00,47.7,38.3,29.78,WSW,248,14.0,17.0,70,0.00,,,0.00,meteohub,2013-04-11 19:59:00,
2013-04-11 15:04:00,48.2,38.5,29.77,SW,225,7.0,17.0,69,0.00,,,0.00,meteohub,2013-04-11 20:04:00,
2013-04-11 15:09:00,48.4,37.9,29.77,WSW,248,10.0,17.0,67,0.00,,,0.00,meteohub,2013-04-11 20:09:00,
2013-04-11 15:14:00,48.4,37.6,29.77,SSE,158,7.0,14.0,66,0.00,,,0.00,meteohub,2013-04-11 20:14:00,
2013-04-11 15:19:00,48.0,37.6,29.77,West,270,11.0,14.0,67,0.00,,,0.00,meteohub,2013-04-11 20:19:00,
2013-04-11 15:24:00,48.4,37.9,29.75,West,270,14.0,14.0,67,0.00,,,0.00,meteohub,2013-04-11 20:24:00,
2013-04-11 15:29:00,48.6,38.1,29.75,SW,225,10.0,13.0,67,0.00,,,0.00,meteohub,2013-04-11 20:29:00,
2013-04-11 15:34:00,48.4,37.6,29.75,NW,315,9.0,15.0,66,0.00,,,0.00,meteohub,2013-04-11 20:34:00,
2013-04-11 15:39:00,48.4,37.6,29.75,WSW,248,13.0,15.0,66,0.00,,,0.00,meteohub,2013-04-11 20:39:00,
2013-04-11 15:44:00,48.4,37.2,29.75,West,270,18.0,18.0,65,0.00,,,0.00,meteohub,2013-04-11 20:44:00,
2013-04-11 15:49:00,48.4,37.6,29.75,West,270,9.0,15.0,66,0.00,,,0.00,meteohub,2013-04-11 20:49:00,
2013-04-11 15:54:00,48.6,38.1,29.74,West,270,11.0,18.0,67,0.00,,,0.00,meteohub,2013-04-11 20:54:00,
2013-04-11 15:59:00,48.7,37.6,29.74,WNW,293,9.0,18.0,65,0.00,,,0.00,meteohub,2013-04-11 20:59:00,
2013-04-11 16:04:00,48.6,37.4,29.74,WSW,248,13.0,14.0,65,0.00,,,0.00,meteohub,2013-04-11 21:04:00,
2013-04-11 16:09:00,48.6,37.8,29.74,WSW,248,11.0,14.0,66,0.00,,,0.00,meteohub,2013-04-11 21:09:00,
2013-04-11 16:14:00,48.6,38.1,29.74,WSW,248,11.0,18.0,67,0.00,,,0.00,meteohub,2013-04-11 21:14:00,
2013-04-11 16:19:00,48.4,37.2,29.75,West,270,10.0,18.0,65,0.00,,,0.00,meteohub,2013-04-11 21:19:00,
2013-04-11 16:24:00,48.4,37.6,29.73,West,270,15.0,15.0,66,0.00,,,0.00,meteohub,2013-04-11 21:24:00,
2013-04-11 16:29:00,48.6,37.8,29.73,NW,315,10.0,14.0,66,0.00,,,0.00,meteohub,2013-04-11 21:29:00,
2013-04-11 16:35:00,48.7,37.0,29.73,WSW,248,14.0,15.0,64,0.00,,,0.00,meteohub,2013-04-11 21:35:00,
2013-04-11 16:40:00,48.0,36.5,29.73,WNW,293,14.0,15.0,64,0.00,,,0.00,meteohub,2013-04-11 21:40:00,
2013-04-11 16:45:00,47.8,36.7,29.73,WNW,293,9.0,17.0,65,0.00,,,0.00,meteohub,2013-04-11 21:45:00,
2013-04-11 16:50:00,47.8,36.3,29.73,West,270,11.0,17.0,64,0.00,,,0.00,meteohub,2013-04-11 21:50:00,
2013-04-11 16:55:00,47.7,36.1,29.73,WSW,248,12.0,14.0,64,0.00,,,0.00,meteohub,2013-04-11 21:55:00,
2013-04-11 17:00:00,47.5,36.7,29.73,NW,315,5.0,14.0,66,0.00,,,0.00,meteohub,2013-04-11 22:00:00,
2013-04-11 17:05:00,47.1,36.0,29.74,West,270,8.0,13.0,65,0.00,,,0.00,meteohub,2013-04-11 22:05:00,
2013-04-11 17:10:00,47.1,36.3,29.74,NW,315,15.0,15.0,66,0.00,,,0.00,meteohub,2013-04-11 22:10:00,
2013-04-11 17:15:00,47.7,36.9,29.74,West,270,8.0,19.0,66,0.00,,,0.00,meteohub,2013-04-11 22:15:00,
2013-04-11 17:20:00,47.7,36.9,29.74,NW,315,9.0,19.0,66,0.00,,,0.00,meteohub,2013-04-11 22:20:00,
2013-04-11 17:25:00,47.8,37.0,29.74,West,270,13.0,19.0,66,0.00,,,0.00,meteohub,2013-04-11 22:25:00,
2013-04-11 17:30:00,48.4,37.6,29.73,SW,225,13.0,15.0,66,0.00,,,0.00,meteohub,2013-04-11 22:30:00,
2013-04-11 17:35:00,48.6,37.8,29.73,NW,315,7.0,13.0,66,0.00,,,0.00,meteohub,2013-04-11 22:35:00,
2013-04-11 17:40:00,48.7,37.6,29.73,West,270,11.0,13.0,65,0.00,,,0.00,meteohub,2013-04-11 22:40:00,
2013-04-11 17:45:00,48.7,37.0,29.74,West,270,13.0,13.0,64,0.00,,,0.00,meteohub,2013-04-11 22:45:00,
2013-04-11 17:50:00,48.6,36.9,29.74,West,270,16.0,16.0,64,0.00,,,0.00,meteohub,2013-04-11 22:50:00,
2013-04-11 17:55:00,48.4,36.7,29.75,WNW,293,8.0,16.0,64,0.00,,,0.00,meteohub,2013-04-11 22:55:00,
2013-04-11 18:00:00,48.0,36.5,29.75,West,270,13.0,16.0,64,0.00,,,0.00,meteohub,2013-04-11 23:00:00,
2013-04-11 18:05:00,48.0,36.5,29.73,West,270,12.0,16.0,64,0.00,,,0.00,meteohub,2013-04-11 23:05:00,
2013-04-11 18:10:00,48.0,36.5,29.73,WSW,248,9.0,16.0,64,0.00,,,0.00,meteohub,2013-04-11 23:10:00,
2013-04-11 18:15:00,48.2,36.7,29.72,SW,225,10.0,16.0,64,0.00,,,0.00,meteohub,2013-04-11 23:15:00,
2013-04-11 18:20:00,47.8,35.8,29.73,WSW,248,17.0,17.0,63,0.00,,,0.00,meteohub,2013-04-11 23:20:00,
2013-04-11 18:25:00,48.0,36.0,29.71,West,270,15.0,18.0,63,0.00,,,0.00,meteohub,2013-04-11 23:25:00,
2013-04-11 18:30:00,47.8,36.3,29.71,WSW,248,11.0,18.0,64,0.00,,,0.00,meteohub,2013-04-11 23:30:00,
2013-04-11 18:35:00,48.0,36.5,29.71,West,270,8.0,18.0,64,0.00,,,0.00,meteohub,2013-04-11 23:35:00,
2013-04-11 18:40:00,47.7,36.1,29.71,West,270,12.0,14.0,64,0.00,,,0.00,meteohub,2013-04-11 23:40:00,
2013-04-11 18:45:00,47.7,35.6,29.72,WNW,293,9.0,14.0,63,0.00,,,0.00,meteohub,2013-04-11 23:45:00,
2013-04-11 18:50:00,47.3,35.8,29.72,WSW,248,12.0,12.0,64,0.00,,,0.00,meteohub,2013-04-11 23:50:00,
2013-04-11 18:55:00,46.9,35.4,29.72,West,270,10.0,12.0,64,0.00,,,0.00,meteohub,2013-04-11 23:55:00,
2013-04-11 19:00:00,46.9,35.4,29.72,ENE,68,7.0,12.0,64,0.00,,,0.00,meteohub,2013-04-12 00:00:00,
2013-04-11 19:05:00,46.4,35.2,29.73,WNW,293,10.0,12.0,65,0.00,,,0.00,meteohub,2013-04-12 00:05:00,
2013-04-11 19:11:00,46.2,35.1,29.73,WNW,293,10.0,11.0,65,0.00,,,0.00,meteohub,2013-04-12 00:11:00,
2013-04-11 19:16:00,46.2,35.1,29.73,West,270,9.0,11.0,65,0.00,,,0.00,meteohub,2013-04-12 00:16:00,
2013-04-11 19:21:00,45.9,35.1,29.74,WNW,293,8.0,10.0,66,0.00,,,0.00,meteohub,2013-04-12 00:21:00,
2013-04-11 19:26:00,45.5,34.9,29.73,WSW,248,6.0,10.0,66,0.00,,,0.00,meteohub,2013-04-12 00:26:00,
2013-04-11 19:31:00,45.0,34.3,29.73,West,270,7.0,9.0,66,0.00,,,0.00,meteohub,2013-04-12 00:31:00,
2013-04-11 19:36:00,45.0,34.3,29.73,SSW,203,6.0,9.0,66,0.00,,,0.00,meteohub,2013-04-12 00:36:00,
2013-04-11 19:41:00,44.6,34.3,29.73,West,270,5.0,8.0,67,0.00,,,0.00,meteohub,2013-04-12 00:41:00,
2013-04-11 19:46:00,44.2,34.0,29.74,West,270,5.0,8.0,67,0.00,,,0.00,meteohub,2013-04-12 00:46:00,
2013-04-11 19:51:00,44.1,34.2,29.74,West,270,5.0,6.0,68,0.00,,,0.00,meteohub,2013-04-12 00:51:00,
2013-04-11 19:56:00,43.7,33.4,29.74,West,270,5.0,6.0,67,0.00,,,0.00,meteohub,2013-04-12 00:56:00,
2013-04-11 20:01:00,43.5,33.6,29.74,West,270,6.0,6.0,68,0.00,,,0.00,meteohub,2013-04-12 01:01:00,
2013-04-11 20:06:00,43.5,34.0,29.75,NW,315,3.0,6.0,69,0.00,,,0.00,meteohub,2013-04-12 01:06:00,
2013-04-11 20:12:00,43.3,33.8,29.75,WNW,293,3.0,7.0,69,0.00,,,0.00,meteohub,2013-04-12 01:12:00,
2013-04-11 20:17:00,43.3,34.2,29.75,WSW,248,5.0,7.0,70,0.00,,,0.00,meteohub,2013-04-12 01:17:00,
2013-04-11 20:22:00,43.3,34.2,29.76,West,270,3.0,7.0,70,0.00,,,0.00,meteohub,2013-04-12 01:22:00,
2013-04-11 20:27:00,43.0,33.8,29.76,South,180,3.0,6.0,70,0.00,,,0.00,meteohub,2013-04-12 01:27:00,
2013-04-11 20:32:00,42.8,33.6,29.76,West,270,4.0,6.0,70,0.00,,,0.00,meteohub,2013-04-12 01:32:00,
2013-04-11 20:37:00,42.6,33.4,29.76,NW,315,5.0,6.0,70,0.00,,,0.00,meteohub,2013-04-12 01:37:00,
2013-04-11 20:42:00,42.6,33.4,29.76,West,270,3.0,6.0,70,0.00,,,0.00,meteohub,2013-04-12 01:42:00,
2013-04-11 20:47:00,42.3,33.6,29.77,NW,315,3.0,6.0,71,0.00,,,0.00,meteohub,2013-04-12 01:47:00,
2013-04-11 20:52:00,42.3,33.6,29.77,West,270,4.0,5.0,71,0.00,,,0.00,meteohub,2013-04-12 01:52:00,
2013-04-11 20:57:00,42.1,33.8,29.77,West,270,5.0,6.0,72,0.00,,,0.00,meteohub,2013-04-12 01:57:00,
2013-04-11 21:02:00,41.9,33.3,29.77,WSW,248,3.0,6.0,71,0.00,,,0.00,meteohub,2013-04-12 02:02:00,
2013-04-11 21:07:00,41.9,33.6,29.77,WNW,293,5.0,6.0,72,0.00,,,0.00,meteohub,2013-04-12 02:07:00,
2013-04-11 21:12:00,41.4,33.1,29.77,West,270,5.0,5.0,72,0.00,,,0.00,meteohub,2013-04-12 02:12:00,
2013-04-11 21:17:00,41.4,33.1,29.77,WSW,248,3.0,5.0,72,0.00,,,0.00,meteohub,2013-04-12 02:17:00,
2013-04-11 21:22:00,41.0,33.1,29.78,WNW,293,2.0,5.0,73,0.00,,,0.00,meteohub,2013-04-12 02:22:00,
2013-04-11 21:27:00,40.8,32.9,29.78,WNW,293,3.0,5.0,73,0.00,,,0.00,meteohub,2013-04-12 02:27:00,
2013-04-11 21:32:00,40.6,32.7,29.78,WSW,248,2.0,4.0,73,0.00,,,0.00,meteohub,2013-04-12 02:32:00,
2013-04-11 21:37:00,40.6,32.7,29.78,WSW,248,3.0,4.0,73,0.00,,,0.00,meteohub,2013-04-12 02:37:00,
2013-04-11 21:42:00,40.5,32.5,29.79,West,270,4.0,4.0,73,0.00,,,0.00,meteohub,2013-04-12 02:42:00,
2013-04-11 21:47:00,40.5,32.9,29.79,WNW,293,2.0,4.0,74,0.00,,,0.00,meteohub,2013-04-12 02:47:00,
2013-04-11 21:52:00,40.3,32.7,29.79,West,270,1.0,5.0,74,0.00,,,0.00,meteohub,2013-04-12 02:52:00,
2013-04-11 21:57:00,40.1,32.5,29.79,West,270,0.0,5.0,74,0.00,,,0.00,meteohub,2013-04-12 02:57:00,
2013-04-11 22:02:00,39.9,32.7,29.78,WNW,293,0.0,3.0,75,0.00,,,0.00,meteohub,2013-04-12 03:02:00,
2013-04-11 22:07:00,39.7,32.5,29.78,WSW,248,0.0,3.0,75,0.00,,,0.00,meteohub,2013-04-12 03:07:00,
2013-04-11 22:12:00,39.7,32.5,29.78,SW,225,0.0,1.0,75,0.00,,,0.00,meteohub,2013-04-12 03:12:00,
2013-04-11 22:17:00,39.4,32.2,29.79,SW,225,0.0,1.0,75,0.00,,,0.00,meteohub,2013-04-12 03:17:00,
2013-04-11 22:22:00,39.2,32.0,29.78,SW,225,0.0,0.0,75,0.00,,,0.00,meteohub,2013-04-12 03:22:00,
2013-04-11 22:27:00,39.0,31.8,29.78,SW,225,0.0,0.0,75,0.00,,,0.00,meteohub,2013-04-12 03:27:00,
2013-04-11 22:32:00,38.5,31.3,29.78,SW,225,0.0,0.0,75,0.00,,,0.00,meteohub,2013-04-12 03:32:00,
2013-04-11 22:37:00,38.5,31.6,29.78,SW,225,0.0,0.0,76,0.00,,,0.00,meteohub,2013-04-12 03:37:00,
2013-04-11 22:42:00,37.9,31.1,29.80,SW,225,0.0,0.0,76,0.00,,,0.00,meteohub,2013-04-12 03:42:00,
2013-04-11 22:47:00,37.8,30.9,29.80,SW,225,0.0,0.0,76,0.00,,,0.00,meteohub,2013-04-12 03:47:00,
2013-04-11 22:52:00,37.4,30.6,29.80,SW,225,0.0,0.0,76,0.00,,,0.00,meteohub,2013-04-12 03:52:00,
2013-04-11 22:58:00,37.2,30.7,29.80,SW,225,0.0,0.0,77,0.00,,,0.00,meteohub,2013-04-12 03:58:00,
2013-04-11 23:00:00,36.9,30.4,29.80,SW,225,0.0,0.0,77,0.00,,,0.00,meteohub,2013-04-12 04:00:00,
2013-04-11 23:05:00,36.7,30.6,29.79,ESE,113,0.0,0.0,78,0.00,,,0.00,meteohub,2013-04-12 04:05:00,
2013-04-11 23:10:00,36.9,30.6,29.79,ESE,113,0.0,0.0,78,0.00,,,0.00,meteohub,2013-04-12 04:10:00,
2013-04-11 23:15:00,36.7,30.6,29.79,WSW,248,0.0,0.0,78,0.00,,,0.00,meteohub,2013-04-12 04:15:00,
2013-04-11 23:20:00,36.3,30.2,29.79,WSW,248,0.0,0.0,78,0.00,,,0.00,meteohub,2013-04-12 04:20:00,
2013-04-11 23:25:00,36.3,30.2,29.79,SW,225,0.0,0.0,78,0.00,,,0.00,meteohub,2013-04-12 04:25:00,
2013-04-11 23:30:00,36.0,29.8,29.79,WSW,248,0.0,0.0,78,0.00,,,0.00,meteohub,2013-04-12 04:30:00,
2013-04-11 23:35:00,35.8,29.8,29.79,WSW,248,0.0,0.0,79,0.00,,,0.00,meteohub,2013-04-12 04:35:00,
2013-04-11 23:40:00,35.4,29.5,29.79,WSW,248,0.0,0.0,79,0.00,,,0.00,meteohub,2013-04-12 04:40:00,
2013-04-11 23:45:00,35.1,29.1,29.79,WSW,248,0.0,0.0,79,0.00,,,0.00,meteohub,2013-04-12 04:45:00,
2013-04-11 23:50:00,34.9,29.1,29.79,SW,225,0.0,0.0,79,0.00,,,0.00,meteohub,2013-04-12 04:50:00,
2013-04-11 23:55:00,34.7,29.1,29.79,South,180,0.0,0.0,80,0.00,,,0.00,meteohub,2013-04-12 04:55:00,